This is the latest recevied weather packets stored in our database for station/object AI9F. If no packets are shown the sender has not sent any weather packets the latest 10 day(s).
| Time | Temp. | Humidity | Pressure | Rain* | Wind** | Luminosity | Snow |
|---|---|---|---|---|---|---|---|
| 1777937593 | 24.44° C | 38% | 1003.8 hPa | 0 mm | - | 89 W/m² | - |
| 1777937289 | 25° C | 38% | 1003.5 hPa | 0 mm | - | 113 W/m² | - |
| 1777936987 | 25° C | 37% | 1003.5 hPa | 0 mm | - | 149 W/m² | - |
| 1777936684 | 25° C | 39% | 1003.7 hPa | 0 mm | - | 177 W/m² | - |
| 1777936380 | 24.44° C | 38% | 1004 hPa | 0 mm | - | 156 W/m² | - |
| 1777936076 | 23.89° C | 41% | 1003.9 hPa | 0 mm | - | 91 W/m² | - |
| 1777935774 | 23.89° C | 39% | 1003.7 hPa | 0 mm | - | 72 W/m² | - |
| 1777935473 | 23.89° C | 40% | 1003.7 hPa | 0 mm | - | 75 W/m² | - |
| 1777935169 | 24.44° C | 38% | 1003.6 hPa | 0 mm | - | 85 W/m² | - |
| 1777934866 | 25° C | 38% | 1003.5 hPa | 0 mm | - | 84 W/m² | - |
| 1777934563 | 25° C | 37% | 1003.2 hPa | 0 mm | - | 191 W/m² | - |
| 1777934259 | 25° C | 38% | 1003.2 hPa | 0 mm | - | 239 W/m² | - |
| 1777933955 | 24.44° C | 36% | 1003.1 hPa | 0 mm | - | 256 W/m² | - |
| 1777933652 | 24.44° C | 37% | 1003.1 hPa | 0 mm | - | 274 W/m² | - |
| 1777933349 | 23.89° C | 41% | 1003.1 hPa | 0 mm | - | 314 W/m² | - |
| 1777933047 | 23.33° C | 43% | 1003.7 hPa | 0 mm | - | 206 W/m² | - |
| 1777932744 | 23.33° C | 41% | 1003.8 hPa | 0 mm | - | 113 W/m² | - |
| 1777932440 | 23.33° C | 42% | 1003.9 hPa | 0 mm | - | 118 W/m² | - |
| 1777932138 | 23.89° C | 42% | 1004 hPa | 0 mm | - | 125 W/m² | - |
| 1777931834 | 23.89° C | 41% | 1004.2 hPa | 0 mm | - | 141 W/m² | - |
| 1777931531 | 23.89° C | 40% | 1004.5 hPa | 0 mm | - | 133 W/m² | - |
| 1777931227 | 24.44° C | 40% | 1004.3 hPa | 0 mm | - | 134 W/m² | - |
| 1777930924 | 23.33° C | 43% | 1004.2 hPa | 0 mm | - | 404 W/m² | - |
| 1777930620 | 22.78° C | 44% | 1004.4 hPa | 0 mm | - | 288 W/m² | - |
| 1777930317 | 22.22° C | 47% | 1004.4 hPa | 0 mm | - | 128 W/m² | - |
* Rain latest hour (hover to see other rain measurements)
** Current wind speed in m/s (hover to see current wind gust speed)